Location: Friedrichshafen
(47.6598°N, 9.4819°E)
Time: 14:14:16
(UTC+01:00)

ISS - Pass Details

Date: 15 November 2017
Orbit: 402 x 407 km, 51.6° (Epoch: 23 November)

Event Time Altitude Azimuth Distance (km) Brightness Sun altitude
Exits shadow 06:27:52 14° 265° (W) 1,248 -1.9 -10.1°
Maximum altitude 06:29:50 23° 220° (SW) 916 -2.3 -9.8°
Drops below altitude 10° 06:32:27 10° 166° (SSE) 1,448 -0.6 -9.4°
Sets 06:34:47 0° 151° (SSE) 2,303 0.8 -9.0°
